Flag for Colombia Weather past 2 weeks in Medellin, Colombia

Now
64 °F

Thunderstorms. Passing clouds.


Feels Like: 64 °F
Forecast: 66 / 80 °F
Wind: 5 mph from East

Location: Rionegro / J. M. Cordova

Current Time: Sep 18, 2014 at 7:12:28 PM

Latest Report: Sep 18, 2014 at 6:00 PM


Visibility: N/A

Pressure: 30.25 "Hg

Humidity: 78%

Dew point: 57 °F

Location of MedellinLocation

Historic Weather in Medellin — Graph

°F

Medellin temperature yesterday

Maximum temperature yesterday: 73 °F (at 4:00 PM)
Minimum temperature yesterday: 55 °F (at 5:00 AM)
Average temperature yesterday: 63 °F

Past Weeks' High & Low Weather Summary

 TemperatureHumidityPressure
High73 °F (Sep 4, 12:00 PM)100% (Sep 4, 5:00 AM)30.41 "Hg (Sep 4, 5:00 AM)
Low50 °F (Sep 9, 6:00 AM)36% (Sep 9, 11:00 AM)30.12 "Hg (Sep 11, 4:00 PM)
Average63 °F76%30.27 "Hg
* Reported Sep 3 6:00 PM — Sep 18 6:00 PM, Medellin, Weather by CustomWeather, © 2014

Note: Actual official high and low records may vary slightly from our data, if they occured in-between our weather recording intervals... More about our weather records

Advertising

Medellin weather history for previous 24 hours

 ConditionsComfort  
Time TempWeatherWind HumidityBarometerVisibility
6:00 PM
Sep 18
64 °FThunderstorms. Passing clouds.5 mph78%30.25 "HgN/A
5:00 PM66 °FScattered showers. Scattered clouds.12 mph73%30.21 "HgN/A
4:00 PM72 °FScattered clouds.7 mph47%30.20 "HgN/A
3:00 PM70 °FScattered clouds.5 mph57%30.23 "HgN/A
2:00 PM66 °FPartly sunny.No wind64%30.26 "HgN/A
1:00 PM66 °FPartly sunny.No wind60%30.30 "HgN/A
12:00 PM63 °FBroken clouds.5 mph77%30.35 "HgN/A
11:00 AM61 °FScattered clouds.5 mph77%30.40 "HgN/A
10:00 AM59 °FDrizzle. Low clouds.3 mph82%30.41 "HgN/A
9:00 AM59 °FDrizzle. Low clouds.6 mph82%30.39 "HgN/A
8:00 AM57 °FDrizzle. More clouds than sun.5 mph94%30.38 "Hg4 mi
7:00 AM57 °FDrizzle. Low clouds.3 mph94%30.35 "Hg5 mi
6:00 AM57 °FDrizzle. Partly sunny.No wind94%30.31 "Hg5 mi
5:00 AM57 °FDrizzle. Mostly cloudy.No wind94%30.30 "Hg5 mi
4:00 AM57 °FDrizzle. Mostly cloudy.No wind94%30.30 "Hg5 mi
3:00 AM59 °FPartly cloudy.No wind94%30.30 "Hg5 mi
2:00 AM59 °FPartly cloudy.No wind94%30.30 "Hg6 mi
1:00 AM59 °FPassing clouds.No wind88%30.32 "HgN/A
12:00 AM59 °FPassing clouds.No wind88%30.33 "HgN/A
11:00 PM
Sep 17
61 °FPassing clouds.No wind83%30.33 "HgN/A
10:00 PM61 °FPassing clouds.No wind83%30.32 "HgN/A
9:00 PM61 °FPassing clouds.No wind83%30.30 "HgN/A
8:00 PM63 °FPassing clouds.No wind73%30.28 "HgN/A
7:00 PM66 °FPassing clouds.No wind60%30.25 "HgN/A
Weather by CustomWeather, © 2014

See weather overviewHow to use our weather pages